Regional Weather Roundup
Issued by NWS

Home | Current Version | Previous Version | Graphics & Text | Print | Product List | Glossary On
Versions: 1 2 3 4 5 6 7 8 9 10 11 12 13 14 15 16 17 18 19 20 21 22 23 24 25 26 27 28 29 30 31 32 33 34 35 36 37 38 39 40 41 42 43 44 45 46 47 48 49 50
000
ASUS43 KLMK 062102
RWRKY
KENTUCKY REGIONAL WEATHER ROUNDUP
NATIONAL WEATHER SERVICE LOUISVILLE KY
500 PM EDT WED MAY 06 2015

NOTE "FAIR" INDICATES FEW OR NO CLOUDS BELOW 12,000 FEET
WITH NO SIGNIFICANT WEATHER AND/OR OBSTRUCTIONS TO VISIBILITY.

KYZ001>023-026-027-061>063-070>075-062200-
WESTERN AND SOUTH CENTRAL KENTUCKY

CITY           SKY/WX    TMP DP  RH WIND       PRES   REMARKS
PADUCAH        MOSUNNY   85  54  34 SE8G17    30.07F
HENDERSON      MOSUNNY   84  55  37 S6        30.07F
OWENSBORO      PTSUNNY   85  58  39 SE10      30.10F
HOPKINSVILLE   NOT AVBL
BOWLING GREEN  SUNNY     85  56  37 SE6       30.10F
GLASGOW        NOT AVBL
$$

KYZ024-025-028>034-038-045-046-053-062200-
NORTH CENTRAL KENTUCKY

CITY           SKY/WX    TMP DP  RH WIND       PRES   REMARKS
LOUISVILLE/SDF PTSUNNY   85  55  35 SW5       30.10F
LOUISVILLE/LOU PTSUNNY   84  53  34 E5        30.11F
FORT KNOX      NOT AVBL
$$

KYZ035>037-039>044-047>052-055>060-089>105-062200-
NORTHEAST KENTUCKY

CITY           SKY/WX    TMP DP  RH WIND       PRES   REMARKS
LEXINGTON      MOSUNNY   85  56  37 NE6       30.13F
COVINGTON      MOSUNNY   84  53  34 CALM      30.13F
FRANKFORT      MOSUNNY   85  51  31 E7        30.11F
$$

KYZ054-064>069-076>088-106>120-062200-
SOUTHEAST KENTUCKY

CITY           SKY/WX    TMP DP  RH WIND       PRES   REMARKS
JACKSON        SUNNY     84  50  30 CALM      30.14F
LONDON         LGT RAIN  79  55  43 SE6       30.13F
SOMERSET       NOT AVBL
MIDDLESBORO    NOT AVBL
MONTICELLO     PTCLDY    84  59  42 VRB3      30.14F
$$




USA.gov is the U.S. government's official web portal to all federal, state and local government web resources and services.